Time,TemperatureF,DewpointF,PressureIn,WindDirection,WindDirectionDegrees,WindSpeedMPH,WindSpeedGustMPH,Humidity,HourlyPrecipIn,Conditions,Clouds,dailyrainin,SolarRadiationWatts/m^2,SoftwareType,DateUTC
2013-06-23 00:01:00,70.0,67.0,-100.00,SSE,148,1.0,4.0,91,0.00,,,0.00,0.000000,,2013-06-23 05:01:00,
2013-06-23 00:32:00,70.0,67.0,-100.00,SSE,159,1.0,4.0,91,0.00,,,-99.99,0.000000,,2013-06-23 05:32:00,
2013-06-23 00:42:00,70.0,67.0,-100.00,SSE,159,1.0,4.0,91,0.00,,,-99.99,0.000000,,2013-06-23 05:42:00,
2013-06-23 00:52:00,70.0,67.0,-100.00,SSE,159,1.0,4.0,91,0.00,,,-99.99,0.000000,,2013-06-23 05:52:00,
2013-06-23 01:02:00,70.0,67.0,-100.00,SSE,159,1.0,4.0,91,0.00,,,-99.99,0.000000,,2013-06-23 06:02:00,
2013-06-23 01:33:00,69.0,67.0,-100.00,SSE,161,1.0,3.0,92,0.00,,,0.00,0.000000,,2013-06-23 06:33:00,
2013-06-23 01:43:00,69.0,67.0,-100.00,SSE,161,1.0,3.0,92,0.00,,,0.00,0.000000,,2013-06-23 06:43:00,
2013-06-23 01:52:00,69.0,67.0,-100.00,SSE,161,1.0,3.0,92,0.00,,,0.00,0.000000,,2013-06-23 06:52:00,
2013-06-23 02:02:00,69.0,67.0,-100.00,SSE,161,1.0,3.0,92,0.00,,,0.00,0.000000,,2013-06-23 07:02:00,
2013-06-23 02:34:00,69.0,68.0,-100.00,SSE,149,1.0,5.0,96,0.00,,,0.00,0.000000,,2013-06-23 07:34:00,
2013-06-23 02:43:00,69.0,68.0,-100.00,SSE,149,1.0,5.0,96,0.00,,,0.00,0.000000,,2013-06-23 07:43:00,
2013-06-23 02:53:00,69.0,68.0,-100.00,SSE,149,1.0,5.0,96,0.00,,,0.00,0.000000,,2013-06-23 07:53:00,
2013-06-23 03:02:00,69.0,68.0,-100.00,SSE,149,1.0,5.0,96,0.00,,,0.00,0.000000,,2013-06-23 08:02:00,
2013-06-23 03:34:00,68.0,67.0,-100.00,SE,139,1.0,4.0,98,0.00,,,0.00,0.000000,,2013-06-23 08:34:00,
2013-06-23 03:43:00,68.0,67.0,-100.00,SE,139,1.0,4.0,98,0.00,,,0.00,0.000000,,2013-06-23 08:43:00,
2013-06-23 03:53:00,68.0,67.0,-100.00,SE,139,1.0,4.0,98,0.00,,,0.00,0.000000,,2013-06-23 08:53:00,
2013-06-23 04:02:00,68.0,67.0,-100.00,SE,139,1.0,4.0,98,0.00,,,0.00,0.000000,,2013-06-23 09:02:00,
2013-06-23 04:34:00,67.0,67.0,-100.00,South,175,1.0,2.0,100,0.00,,,0.00,0.000000,,2013-06-23 09:34:00,
2013-06-23 04:43:00,67.0,67.0,-100.00,South,175,1.0,2.0,100,0.00,,,0.00,0.000000,,2013-06-23 09:43:00,
2013-06-23 04:54:00,67.0,67.0,-100.00,South,175,1.0,2.0,100,0.00,,,0.00,0.000000,,2013-06-23 09:54:00,
2013-06-23 05:02:00,67.0,67.0,-100.00,South,175,1.0,2.0,100,0.00,,,0.00,0.000000,,2013-06-23 10:02:00,
2013-06-23 05:34:00,66.0,66.0,-100.00,SE,128,0.0,4.0,100,0.00,,,0.00,0.000000,,2013-06-23 10:34:00,
2013-06-23 05:43:00,66.0,66.0,-100.00,SE,128,0.0,4.0,100,0.00,,,0.00,0.000000,,2013-06-23 10:43:00,
2013-06-23 05:53:00,66.0,66.0,-100.00,SE,128,0.0,4.0,100,0.00,,,0.00,0.000000,,2013-06-23 10:53:00,
2013-06-23 06:02:00,66.0,66.0,-100.00,SE,128,0.0,4.0,100,0.00,,,0.00,0.000000,,2013-06-23 11:02:00,
2013-06-23 06:33:00,66.0,66.0,-100.00,SSE,165,1.0,2.0,100,0.00,,,0.00,7.000000,,2013-06-23 11:33:00,
2013-06-23 06:43:00,66.0,66.0,-100.00,SSE,165,1.0,2.0,100,0.00,,,0.00,7.000000,,2013-06-23 11:43:00,
2013-06-23 06:53:00,66.0,66.0,-100.00,SSE,165,1.0,2.0,100,0.00,,,0.00,7.000000,,2013-06-23 11:53:00,
2013-06-23 07:01:00,66.0,66.0,-100.00,SSE,165,1.0,2.0,100,0.00,,,0.00,7.000000,,2013-06-23 12:01:00,
2013-06-23 07:34:00,68.0,68.0,-100.00,SSE,163,2.0,3.0,100,0.00,,,0.00,32.000000,,2013-06-23 12:34:00,
2013-06-23 07:43:00,68.0,68.0,-100.00,SSE,163,2.0,3.0,100,0.00,,,0.00,32.000000,,2013-06-23 12:43:00,
2013-06-23 07:53:00,68.0,68.0,-100.00,SSE,163,2.0,3.0,100,0.00,,,0.00,32.000000,,2013-06-23 12:53:00,
2013-06-23 08:02:00,68.0,68.0,-100.00,SSE,163,2.0,3.0,100,0.00,,,0.00,32.000000,,2013-06-23 13:02:00,
2013-06-23 08:34:00,75.0,71.0,-100.00,South,180,3.0,6.0,88,0.00,,,0.00,132.000000,,2013-06-23 13:34:00,
2013-06-23 08:43:00,75.0,71.0,-100.00,South,180,3.0,6.0,88,0.00,,,0.00,132.000000,,2013-06-23 13:43:00,
2013-06-23 08:54:00,75.0,71.0,-100.00,South,180,3.0,6.0,88,0.00,,,0.00,132.000000,,2013-06-23 13:54:00,
2013-06-23 09:05:00,75.0,71.0,-100.00,South,180,3.0,6.0,88,0.00,,,0.00,132.000000,,2013-06-23 14:05:00,
2013-06-23 09:34:00,80.0,68.0,-100.00,South,191,3.0,6.0,68,0.00,,,0.00,443.000000,,2013-06-23 14:34:00,
2013-06-23 09:44:00,80.0,68.0,-100.00,South,191,3.0,6.0,68,0.00,,,0.00,443.000000,,2013-06-23 14:44:00,
2013-06-23 09:52:00,80.0,68.0,-100.00,South,191,3.0,6.0,68,0.00,,,0.00,443.000000,,2013-06-23 14:52:00,
2013-06-23 10:05:00,80.0,68.0,-100.00,South,191,3.0,6.0,68,0.00,,,0.00,443.000000,,2013-06-23 15:05:00,
2013-06-23 10:06:00,83.0,68.0,-100.00,SSW,205,4.0,7.0,61,0.00,,,0.00,614.000000,,2013-06-23 15:06:00,
2013-06-23 10:35:00,83.0,68.0,-100.00,SSW,205,4.0,7.0,61,0.00,,,0.00,614.000000,,2013-06-23 15:35:00,
2013-06-23 10:43:00,83.0,68.0,-100.00,SSW,205,4.0,7.0,61,0.00,,,0.00,614.000000,,2013-06-23 15:43:00,
2013-06-23 10:53:00,83.0,68.0,-100.00,SSW,205,4.0,7.0,61,0.00,,,0.00,614.000000,,2013-06-23 15:53:00,
2013-06-23 11:06:00,85.0,68.0,-100.00,SSW,212,4.0,11.0,56,0.00,,,0.00,752.000000,,2013-06-23 16:06:00,
2013-06-23 11:36:00,85.0,68.0,-100.00,SSW,212,4.0,11.0,56,0.00,,,0.00,752.000000,,2013-06-23 16:36:00,
2013-06-23 11:43:00,85.0,68.0,-100.00,SSW,212,4.0,11.0,56,0.00,,,0.00,752.000000,,2013-06-23 16:43:00,
2013-06-23 11:53:00,85.0,68.0,-100.00,SSW,212,4.0,11.0,56,0.00,,,0.00,752.000000,,2013-06-23 16:53:00,
2013-06-23 12:34:00,85.0,66.0,-100.00,SSW,198,4.0,11.0,54,0.00,,,0.00,594.000000,,2013-06-23 17:34:00,
2013-06-23 12:43:00,85.0,66.0,-100.00,SSW,198,4.0,11.0,54,0.00,,,0.00,594.000000,,2013-06-23 17:43:00,
2013-06-23 12:53:00,85.0,66.0,-100.00,SSW,198,4.0,11.0,54,0.00,,,0.00,594.000000,,2013-06-23 17:53:00,
2013-06-23 13:01:00,85.0,66.0,-100.00,SSW,198,4.0,11.0,54,0.00,,,0.00,594.000000,,2013-06-23 18:01:00,
2013-06-23 13:34:00,85.0,69.0,-100.00,SW,221,3.0,8.0,58,0.00,,,0.00,485.000000,,2013-06-23 18:34:00,
2013-06-23 13:43:00,85.0,69.0,-100.00,SW,221,3.0,8.0,58,0.00,,,0.00,485.000000,,2013-06-23 18:43:00,
2013-06-23 13:53:00,85.0,69.0,-100.00,SW,221,3.0,8.0,58,0.00,,,0.00,485.000000,,2013-06-23 18:53:00,
2013-06-23 14:01:00,85.0,69.0,-100.00,SW,221,3.0,8.0,58,0.00,,,0.00,485.000000,,2013-06-23 19:01:00,
2013-06-23 14:32:00,86.0,68.0,-100.00,SW,229,2.0,7.0,56,0.00,,,0.00,596.000000,,2013-06-23 19:32:00,
2013-06-23 14:43:00,86.0,68.0,-100.00,SW,229,2.0,7.0,56,0.00,,,0.00,596.000000,,2013-06-23 19:43:00,
2013-06-23 14:53:00,86.0,68.0,-100.00,SW,229,2.0,7.0,56,0.00,,,0.00,596.000000,,2013-06-23 19:53:00,
2013-06-23 15:02:00,86.0,68.0,-100.00,SW,229,2.0,7.0,56,0.00,,,0.00,596.000000,,2013-06-23 20:02:00,
2013-06-23 15:34:00,85.0,71.0,-100.00,ENE,63,1.0,4.0,63,0.00,,,0.00,385.000000,,2013-06-23 20:34:00,
2013-06-23 15:42:00,85.0,71.0,-100.00,ENE,63,1.0,4.0,63,0.00,,,0.00,385.000000,,2013-06-23 20:42:00,
2013-06-23 15:53:00,85.0,71.0,-100.00,ENE,63,1.0,4.0,63,0.00,,,0.00,385.000000,,2013-06-23 20:53:00,
2013-06-23 16:01:00,85.0,71.0,-100.00,ENE,63,1.0,4.0,63,0.00,,,0.00,385.000000,,2013-06-23 21:01:00,
2013-06-23 16:34:00,83.0,70.0,-100.00,NE,54,1.0,3.0,65,0.00,,,0.00,312.000000,,2013-06-23 21:34:00,
2013-06-23 16:44:00,83.0,70.0,-100.00,NE,54,1.0,3.0,65,0.00,,,0.00,312.000000,,2013-06-23 21:44:00,
2013-06-23 16:52:00,83.0,70.0,-100.00,NE,54,1.0,3.0,65,0.00,,,0.00,312.000000,,2013-06-23 21:52:00,
2013-06-23 17:01:00,83.0,70.0,-100.00,NE,54,1.0,3.0,65,0.00,,,0.00,312.000000,,2013-06-23 22:01:00,
2013-06-23 17:33:00,77.0,74.0,-100.00,WSW,244,1.0,6.0,91,0.00,,,0.00,136.000000,,2013-06-23 22:33:00,
2013-06-23 17:43:00,77.0,74.0,-100.00,WSW,244,1.0,6.0,91,0.00,,,0.00,136.000000,,2013-06-23 22:43:00,
2013-06-23 17:53:00,77.0,74.0,-100.00,WSW,244,1.0,6.0,91,0.00,,,0.00,136.000000,,2013-06-23 22:53:00,
2013-06-23 18:01:00,77.0,74.0,-100.00,WSW,244,1.0,6.0,91,0.00,,,0.00,136.000000,,2013-06-23 23:01:00,
2013-06-23 18:33:00,79.0,75.0,-100.00,SE,138,1.0,3.0,88,0.00,,,0.00,156.000000,,2013-06-23 23:33:00,
2013-06-23 18:44:00,79.0,75.0,-100.00,SE,138,1.0,3.0,88,0.00,,,0.00,156.000000,,2013-06-23 23:44:00,
2013-06-23 18:52:00,79.0,75.0,-100.00,SE,138,1.0,3.0,88,0.00,,,0.00,156.000000,,2013-06-23 23:52:00,
2013-06-23 19:01:00,79.0,75.0,-100.00,SE,138,1.0,3.0,88,0.00,,,0.00,156.000000,,2013-06-24 00:01:00,
2013-06-23 19:33:00,80.0,75.0,-100.00,SSE,157,1.0,3.0,86,0.00,,,0.00,150.000000,,2013-06-24 00:33:00,
2013-06-23 19:43:00,80.0,75.0,-100.00,SSE,157,1.0,3.0,86,0.00,,,0.00,150.000000,,2013-06-24 00:43:00,
2013-06-23 19:52:00,80.0,75.0,-100.00,SSE,157,1.0,3.0,86,0.00,,,0.00,150.000000,,2013-06-24 00:52:00,
2013-06-23 20:02:00,80.0,75.0,-100.00,SSE,157,1.0,3.0,86,0.00,,,0.00,150.000000,,2013-06-24 01:02:00,
2013-06-23 20:32:00,74.0,70.0,-100.00,ESE,103,0.0,2.0,88,0.00,,,0.00,28.000000,,2013-06-24 01:32:00,
2013-06-23 20:42:00,74.0,70.0,-100.00,ESE,103,0.0,2.0,88,0.00,,,0.00,28.000000,,2013-06-24 01:42:00,
2013-06-23 20:53:00,74.0,70.0,-100.00,ESE,103,0.0,2.0,88,0.00,,,0.00,28.000000,,2013-06-24 01:53:00,
2013-06-23 21:02:00,74.0,70.0,-100.00,ESE,103,0.0,2.0,88,0.00,,,0.00,28.000000,,2013-06-24 02:02:00,
2013-06-23 21:33:00,71.0,71.0,-100.00,WNW,285,0.0,2.0,100,0.00,,,0.00,0.000000,,2013-06-24 02:33:00,
2013-06-23 21:42:00,71.0,71.0,-100.00,WNW,285,0.0,2.0,100,0.00,,,0.00,0.000000,,2013-06-24 02:42:00,
2013-06-23 21:53:00,71.0,71.0,-100.00,WNW,285,0.0,2.0,100,0.00,,,0.00,0.000000,,2013-06-24 02:53:00,
2013-06-23 22:01:00,71.0,71.0,-100.00,WNW,285,0.0,2.0,100,0.00,,,0.00,0.000000,,2013-06-24 03:01:00,
2013-06-23 22:33:00,71.0,71.0,-100.00,SSW,208,0.0,0.0,100,0.00,,,0.00,0.000000,,2013-06-24 03:33:00,
2013-06-23 22:43:00,71.0,71.0,-100.00,SSW,208,0.0,0.0,100,0.00,,,0.00,0.000000,,2013-06-24 03:43:00,
2013-06-23 22:53:00,71.0,71.0,-100.00,SSW,208,0.0,0.0,100,0.00,,,0.00,0.000000,,2013-06-24 03:53:00,
2013-06-23 23:02:00,71.0,71.0,-100.00,SSW,208,0.0,0.0,100,0.00,,,0.00,0.000000,,2013-06-24 04:02:00,
2013-06-23 23:33:00,69.0,69.0,-100.00,South,172,1.0,1.0,100,0.00,,,0.00,0.000000,,2013-06-24 04:33:00,
2013-06-23 23:43:00,69.0,69.0,-100.00,South,172,1.0,1.0,100,0.00,,,0.00,0.000000,,2013-06-24 04:43:00,
2013-06-23 23:53:00,69.0,69.0,-100.00,South,172,1.0,1.0,100,0.00,,,0.00,0.000000,,2013-06-24 04:53:00,